When you browse on this site, cookies collect data to enhance your experience and personalize the content and advertising you see.
Visit our Privacy Policy to learn more. By continuing to use the site, you agree to this use of cookies and data.
  • In Czech Republic
  • List of Countries
  • For 7 days
  • Water Temperature
  • Weather Map
  • Weather Widgets
  • user-avatar
    Login

    Hourly Weather Corozal

    Today, 14 December, Saturday

    Time Temperature Precipitation Wind Pressure Humidity
    00:00 +24°C° 0 mm 1 mps 758 mmHg 95%
    01:00 +23°C° 0.1 mm 1 mps 758 mmHg 96%
    02:00 +23°C° 0.1 mm 1 mps 758 mmHg 96%
    03:00 +23°C° 0.1 mm 1 mps 758 mmHg 97%
    04:00 +23°C° 0.1 mm 1 mps 758 mmHg 97%
    05:00 +23°C° 0.1 mm 1 mps 759 mmHg 97%
    06:00 +22°C° 0.1 mm 1 mps 759 mmHg 97%
    07:00 +24°C° 0 mm 1 mps 759 mmHg 92%
    08:00 +24°C° 0 mm 0 mps 760 mmHg 88%
    09:00 +25°C° 0 mm 0 mps 760 mmHg 83%
    10:00 +27°C° 0 mm 0 mps 760 mmHg 75%
    11:00 +30°C° 0 mm 1 mps 759 mmHg 67%
    12:00 +32°C° 0 mm 1 mps 759 mmHg 60%
    13:00 +32°C° 0 mm 1 mps 758 mmHg 60%
    14:00 +31°C° 0 mm 1 mps 758 mmHg 61%
    15:00 +31°C° 0 mm 1 mps 757 mmHg 62%
    16:00 +29°C° 0 mm 2 mps 758 mmHg 70%
    17:00 +27°C° 0 mm 2 mps 758 mmHg 79%
    18:00 +25°C° 0 mm 2 mps 758 mmHg 87%
    19:00 +25°C° 0 mm 2 mps 759 mmHg 89%
    20:00 +25°C° 0 mm 2 mps 759 mmHg 91%
    21:00 +24°C° 0 mm 1 mps 760 mmHg 93%
    22:00 +24°C° 0 mm 1 mps 760 mmHg 93%
    23:00 +24°C° 0 mm 1 mps 760 mmHg 93%

    Tomorrow, 15 December, Sunday

    Time Temperature Precipitation Wind Pressure Humidity
    00:00 +24°C° 0 mm 1 mps 760 mmHg 94%
    01:00 +24°C° 0 mm 1 mps 759 mmHg 94%
    02:00 +23°C° 0 mm 1 mps 759 mmHg 94%
    03:00 +23°C° 0 mm 1 mps 759 mmHg 94%
    04:00 +23°C° 0 mm 1 mps 759 mmHg 93%
    05:00 +23°C° 0 mm 1 mps 760 mmHg 93%
    06:00 +23°C° 0 mm 1 mps 760 mmHg 93%
    07:00 +25°C° 0 mm 1 mps 761 mmHg 85%
    08:00 +27°C° 0 mm 2 mps 761 mmHg 78%
    09:00 +29°C° 0 mm 3 mps 762 mmHg 70%
    10:00 +29°C° 0 mm 3 mps 761 mmHg 68%
    11:00 +30°C° 0 mm 3 mps 761 mmHg 66%
    12:00 +30°C° 0 mm 3 mps 761 mmHg 64%
    13:00 +30°C° 0 mm 3 mps 760 mmHg 65%
    14:00 +30°C° 0 mm 3 mps 759 mmHg 66%
    15:00 +30°C° 0 mm 3 mps 759 mmHg 67%
    16:00 +28°C° 0 mm 3 mps 759 mmHg 73%
    17:00 +27°C° 0 mm 2 mps 759 mmHg 79%
    18:00 +25°C° 0 mm 2 mps 759 mmHg 85%
    19:00 +25°C° 0 mm 2 mps 760 mmHg 87%
    20:00 +24°C° 0 mm 2 mps 760 mmHg 89%
    21:00 +24°C° 0 mm 2 mps 760 mmHg 91%
    22:00 +24°C° 0 mm 2 mps 760 mmHg 92%
    23:00 +24°C° 0 mm 2 mps 760 mmHg 93%

    Day after tomorrow, 16 December, Monday

    Time Temperature Precipitation Wind Pressure Humidity
    00:00 +24°C° 0 mm 2 mps 760 mmHg 94%
    01:00 +24°C° 0 mm 2 mps 759 mmHg 93%
    02:00 +24°C° 0 mm 2 mps 759 mmHg 93%
    03:00 +24°C° 0 mm 2 mps 759 mmHg 92%
    04:00 +24°C° 0 mm 2 mps 759 mmHg 93%
    05:00 +24°C° 0 mm 2 mps 759 mmHg 94%
    06:00 +24°C° 0 mm 2 mps 759 mmHg 94%
    07:00 +26°C° 0 mm 2 mps 760 mmHg 87%
    08:00 +28°C° 0 mm 3 mps 760 mmHg 81%
    09:00 +29°C° 0 mm 3 mps 761 mmHg 74%
    10:00 +30°C° 0.2 mm 3 mps 760 mmHg 73%
    11:00 +30°C° 0.2 mm 3 mps 760 mmHg 73%
    12:00 +32°C° 0.2 mm 4 mps 759 mmHg 72%
    13:00 +30°C° 0.1 mm 4 mps 759 mmHg 72%
    14:00 +30°C° 0.1 mm 4 mps 758 mmHg 72%
    15:00 +30°C° 0.1 mm 3 mps 757 mmHg 72%
    16:00 +29°C° 0 mm 3 mps 757 mmHg 78%
    17:00 +28°C° 0 mm 2 mps 758 mmHg 84%
    18:00 +26°C° 0 mm 2 mps 758 mmHg 90%
    19:00 +26°C° 0 mm 2 mps 758 mmHg 91%
    20:00 +26°C° 0 mm 2 mps 759 mmHg 92%
    21:00 +26°C° 0 mm 2 mps 759 mmHg 94%
    22:00 +26°C° 0 mm 2 mps 759 mmHg 94%
    23:00 +26°C° 0 mm 2 mps 758 mmHg 95%

    17 December, Tuesday

    Time Temperature Precipitation Wind Pressure Humidity
    00:00 +25°C° 0 mm 1 mps 758 mmHg 95%
    01:00 +25°C° 0 mm 1 mps 758 mmHg 95%
    02:00 +25°C° 0 mm 1 mps 758 mmHg 96%
    03:00 +25°C° 0 mm 1 mps 757 mmHg 96%
    04:00 +26°C° 0.1 mm 1 mps 757 mmHg 95%
    05:00 +26°C° 0.1 mm 1 mps 758 mmHg 95%
    06:00 +26°C° 0.1 mm 1 mps 758 mmHg 95%
    07:00 +27°C° 0.1 mm 1 mps 758 mmHg 91%
    08:00 +28°C° 0.1 mm 2 mps 759 mmHg 87%
    09:00 +29°C° 0.1 mm 2 mps 759 mmHg 82%
    10:00 +30°C° 0.2 mm 2 mps 759 mmHg 78%
    11:00 +31°C° 0.2 mm 2 mps 758 mmHg 74%
    12:00 +32°C° 0.2 mm 2 mps 758 mmHg 70%
    13:00 +31°C° 0.5 mm 2 mps 757 mmHg 73%
    14:00 +31°C° 0.5 mm 2 mps 757 mmHg 75%
    15:00 +31°C° 0.5 mm 2 mps 756 mmHg 77%
    16:00 +29°C° 1.3 mm 2 mps 756 mmHg 82%
    17:00 +28°C° 1.3 mm 2 mps 757 mmHg 87%
    18:00 +26°C° 1.3 mm 2 mps 757 mmHg 92%
    19:00 +26°C° 0.6 mm 1 mps 758 mmHg 93%
    20:00 +26°C° 0.6 mm 1 mps 758 mmHg 94%
    21:00 +25°C° 0.6 mm 1 mps 759 mmHg 95%
    22:00 +25°C° 1.1 mm 1 mps 759 mmHg 94%
    23:00 +25°C° 1.1 mm 1 mps 759 mmHg 94%

    18 December, Wednesday

    Time Temperature Precipitation Wind Pressure Humidity
    00:00 +25°C° 1.1 mm 1 mps 758 mmHg 94%
    01:00 +25°C° 0.2 mm 1 mps 758 mmHg 95%
    02:00 +24°C° 0.2 mm 2 mps 758 mmHg 96%
    03:00 +24°C° 0.2 mm 2 mps 758 mmHg 97%
    04:00 +24°C° 0 mm 2 mps 759 mmHg 97%
    05:00 +24°C° 0 mm 2 mps 759 mmHg 97%
    06:00 +24°C° 0 mm 2 mps 759 mmHg 98%
    07:00 +25°C° 0.1 mm 2 mps 760 mmHg 94%
    08:00 +26°C° 0.1 mm 3 mps 761 mmHg 91%
    09:00 +27°C° 0.1 mm 3 mps 761 mmHg 88%
    10:00 +27°C° 1.1 mm 3 mps 761 mmHg 86%
    11:00 +28°C° 1.1 mm 3 mps 760 mmHg 84%
    12:00 +29°C° 1.1 mm 3 mps 760 mmHg 82%
    13:00 +29°C° 1.8 mm 3 mps 759 mmHg 83%
    14:00 +28°C° 1.8 mm 3 mps 759 mmHg 85%
    15:00 +28°C° 1.8 mm 3 mps 759 mmHg 87%
    16:00 +27°C° 2.5 mm 3 mps 759 mmHg 89%
    17:00 +26°C° 2.5 mm 4 mps 759 mmHg 91%
    18:00 +25°C° 2.5 mm 4 mps 760 mmHg 93%
    19:00 +23°C° 0.3 mm 5 mps 760 mmHg 94%
    20:00 +23°C° 0.3 mm 5 mps 761 mmHg 94%
    21:00 +23°C° 0.3 mm 5 mps 762 mmHg 94%
    22:00 +23°C° 0 mm 5 mps 761 mmHg 93%
    23:00 +23°C° 0 mm 5 mps 761 mmHg 92%

    19 December, Thursday

    Time Temperature Precipitation Wind Pressure Humidity
    00:00 +23°C° 0 mm 4 mps 761 mmHg 91%
    01:00 +23°C° 0 mm 4 mps 761 mmHg 90%
    02:00 +23°C° 0 mm 4 mps 760 mmHg 89%
    03:00 +22°C° 0 mm 4 mps 760 mmHg 88%
    04:00 +22°C° 0 mm 4 mps 761 mmHg 87%
    05:00 +22°C° 0 mm 4 mps 761 mmHg 87%
    06:00 +22°C° 0 mm 4 mps 762 mmHg 86%
    07:00 +22°C° 0 mm 4 mps 762 mmHg 85%
    08:00 +22°C° 0 mm 4 mps 762 mmHg 83%
    09:00 +23°C° 0 mm 5 mps 763 mmHg 82%
    10:00 +23°C° 0.5 mm 4 mps 762 mmHg 84%
    11:00 +23°C° 0.5 mm 4 mps 762 mmHg 85%
    12:00 +24°C° 0.5 mm 3 mps 762 mmHg 87%
    13:00 +24°C° 1 mm 3 mps 761 mmHg 88%
    14:00 +24°C° 1 mm 3 mps 761 mmHg 88%
    15:00 +24°C° 1 mm 2 mps 760 mmHg 89%
    16:00 +24°C° 0.3 mm 2 mps 761 mmHg 90%
    17:00 +24°C° 0.3 mm 2 mps 761 mmHg 92%
    18:00 +24°C° 0.3 mm 2 mps 761 mmHg 93%
    19:00 +24°C° 0.1 mm 2 mps 762 mmHg 92%
    20:00 +22°C° 0.1 mm 3 mps 762 mmHg 91%
    21:00 +22°C° 0.1 mm 3 mps 762 mmHg 91%
    22:00 +22°C° 0.2 mm 3 mps 762 mmHg 91%
    23:00 +21°C° 0.2 mm 3 mps 762 mmHg 92%
    Show more